This is the latest recevied weather packets stored in our database for station/object KB3HLL. If no packets are shown the sender has not sent any weather packets the latest 10 day(s).
| Time | Temp. | Humidity | Pressure | Rain* | Wind** | Luminosity | Snow |
|---|---|---|---|---|---|---|---|
| 1777899079 | 8.89° C | 64% | 1013.5 hPa | 0 mm | - | 438 W/m² | - |
| 1777898778 | 8.89° C | 67% | 1013.5 hPa | 0 mm | - | 418 W/m² | - |
| 1777898478 | 8.89° C | 67% | 1013.3 hPa | 0 mm | - | 403 W/m² | - |
| 1777898180 | 9.44° C | 65% | 1013.3 hPa | 0 mm | - | 390 W/m² | - |
| 1777897878 | 9.44° C | 61% | 1013.4 hPa | 0 mm | - | 336 W/m² | - |
| 1777897578 | 10° C | 60% | 1013.4 hPa | 0 mm | - | 159 W/m² | - |
| 1777897278 | 10° C | 60% | 1013.6 hPa | 0 mm | - | 182 W/m² | - |
| 1777896978 | 10.56° C | 58% | 1013.6 hPa | 0 mm | - | 204 W/m² | - |
| 1777896679 | 10° C | 58% | 1013.6 hPa | 0 mm | - | 406 W/m² | - |
| 1777896382 | 9.44° C | 60% | 1013.6 hPa | 0 mm | - | 386 W/m² | - |
| 1777896078 | 9.44° C | 60% | 1013.7 hPa | 0 mm | - | 260 W/m² | - |
| 1777895779 | 8.89° C | 60% | 1013.7 hPa | 0 mm | - | 279 W/m² | - |
| 1777895479 | 8.33° C | 61% | 1013.7 hPa | 0 mm | - | 263 W/m² | - |
| 1777895178 | 8.33° C | 63% | 1013.6 hPa | 0 mm | - | 216 W/m² | - |
| 1777894610 | 7.78° C | 63% | 1013.6 hPa | 0 mm | - | 103 W/m² | - |
| 1777894285 | 7.78° C | 63% | 1013.7 hPa | 0 mm | - | 77 W/m² | - |
| 1777893978 | 7.78° C | 63% | 1013.7 hPa | 0 mm | - | 67 W/m² | - |
| 1777893677 | 7.78° C | 64% | 1013.7 hPa | 0 mm | - | 59 W/m² | - |
| 1777893377 | 7.78° C | 64% | 1013.7 hPa | 0 mm | - | 53 W/m² | - |
| 1777893080 | 7.78° C | 65% | 1013.6 hPa | 0 mm | - | 51 W/m² | - |
| 1777892778 | 7.78° C | 64% | 1013.6 hPa | 0 mm | - | 47 W/m² | - |
| 1777892478 | 8.33° C | 62% | 1013.6 hPa | 0 mm | - | 40 W/m² | - |
| 1777892177 | 8.33° C | 63% | 1013.6 hPa | 0 mm | - | 40 W/m² | - |
| 1777891878 | 8.33° C | 62% | 1013.6 hPa | 0 mm | - | 28 W/m² | - |
| 1777891577 | 7.78° C | 63% | 1013.6 hPa | 0 mm | - | 23 W/m² | - |
* Rain latest hour (hover to see other rain measurements)
** Current wind speed in m/s (hover to see current wind gust speed)